map of RAK home
Great Circle Mapper logo
RAK - Airport
Location
City:  Marrakech, Morocco
Name:Menara
ICAO / IATA:GMMX / RAK

Details
Type:Airport (Aerodrome, Airfield)
Use:Public/Civil, Military, International (customs port of entry)
Latitude:3136'25"N (31.606886)
Longitude:802'11"W (-8.036299)
Datum:WGS 1984
Elevation:1545 ft (471 m)
Runways:1
Longest:10170 × 148 ft (3100 × 45 m), paved

Time
Time Zone:UTC+0 (DST+1)
Local Time:

Weather
METAR:GMMX 310600Z 00000KT CAVOK 16/06 Q1018 NOSIG
TAF:GMMX 310500Z 3106/0112 06006KT CAVOK
TEMPO 3115/3121 34014KT SCT033 SCT100

Related Locations
Nearby:
Farthest:KAT: 12180 mi / 19603 km
Kaitaia, NZ

Find:

   beyond  
but within

Other Information
Maps:
NOTAMs:
Links:
Sources:

  
flag of Morocco   

Sectional Chart

Flight Planning
at skyvector.com

Satellite Image

Google Maps Satellite View

 

Copyright © 2004-2014 Karl L. Swartz. All rights reserved.
The Great Circle Mapper name and logo are trademarks of the Great Circle Mapper.
All other trademarks mentioned herein belong to their respective owners.
Please see credits for attibutions and further copyright information.

  Follow gcmap on Facebook Follow gcmap on Twitter

hCard Microformat

Geo Microformat